Grayling, MI

4:42 AM EDT on July 28, 2017 (GMT -0400)
Grayling

Weather History for KGOV - November, 2012

Change the Weather History Date:

Friday, November 9, 2012

  Actual Average (KHTL) Record (KHTL)
Temperature  
Mean Temperature 38 °F -  
Max Temperature 44 °F 43 °F 69 °F (1999)
Min Temperature 33 °F 30 °F 0 °F (1925)
Degree Days  
Heating Degree Days 26    
Moisture  
Dew Point 38 °F    
Average Humidity 93    
Maximum Humidity 100    
Minimum Humidity 84    
Precipitation  
Precipitation 0.00 in - - ()
Sea Level Pressure  
Sea Level Pressure 30.11 in    
Wind  
Wind Speed 1 mph (SW)    
Max Wind Speed 6 mph    
Max Gust Speed -    
Visibility 4 miles    
Events Rain    
Averages and records for this station are not official NWS values.
T = Trace of Precipitation, MM = Missing Value Source: NWS Daily Summary

Daily Weather History Graph

Daily Weather History Graph

Search for Another Location

Airport or City:

Trip Planner

Search our weather history database for the weather conditions in past years. The results will help you decide how hot, cold, wet, or windy it might be!

Date:

Astronomy

Nov. 09, 2012 Rise Set
Actual Time 7:28 AM EST 5:16 PM EST
Civil Twilight 6:57 AM EST 5:47 PM EST
Nautical Twilight 6:22 AM EST 6:22 PM EST
Astronomical Twilight 5:47 AM EST 6:57 PM EST
Moon 2:14 AM EST (11/9) 2:39 PM EST (11/9)
Length of Visible Light 10h 50m
Length of Day
9h 48m
Waning Crescent, 23% of the Moon is Illuminated
Nov 9
Waning Crescent
Nov 13
New
Nov 20
First Quarter
Nov 28
Full
Dec 6
Last Quarter

Hourly Weather History & Observations

Time (EST) Temp. Windchill Dew Point Humidity Pressure Visibility Wind Dir Wind Speed Gust Speed Precip Events Conditions
12:12 AM 39.6 °F - 35.2 °F 85% 30.08 in 7.0 mi Calm Calm - N/A   Overcast
12:32 AM 39.4 °F 35.2 °F 35.6 °F 86% 30.08 in 7.0 mi WSW 5.8 mph - N/A   Overcast
12:52 AM 39.6 °F 35.4 °F 35.6 °F 86% 30.08 in 7.0 mi WSW 5.8 mph - N/A   Overcast
1:12 AM 39.6 °F - 35.8 °F 86% 30.08 in 7.0 mi Calm Calm - N/A   Overcast
1:32 AM 39.2 °F - 35.6 °F 87% 30.08 in 7.0 mi Calm Calm - N/A   Overcast
1:52 AM 39.2 °F - 35.6 °F 87% 30.08 in 7.0 mi Calm Calm - N/A   Overcast
2:13 AM 38.3 °F - 35.4 °F 89% 30.08 in 7.0 mi Calm Calm - N/A   Overcast
2:33 AM 38.3 °F - 35.8 °F 91% 30.08 in 7.0 mi Calm Calm - N/A   Mostly Cloudy
2:53 AM 36.5 °F - 34.2 °F 91% 30.09 in 5.0 mi Calm Calm - N/A   Scattered Clouds
3:13 AM 33.3 °F - 32.9 °F 99% 30.08 in 2.5 mi Calm Calm - N/A   Overcast
3:33 AM 33.3 °F - 33.3 °F 100% 30.09 in 3.0 mi Calm Calm - N/A   Mist
3:53 AM 33.3 °F - 33.3 °F 100% 30.09 in 0.8 mi Calm Calm - N/A   Overcast
4:13 AM 33.3 °F - 33.3 °F 100% 30.09 in 2.0 mi Calm Calm - N/A   Overcast
4:33 AM 33.3 °F - 33.3 °F 100% 30.10 in 1.8 mi Calm Calm - N/A   Overcast
4:54 AM 33.3 °F - 33.3 °F 100% 30.10 in 4.0 mi Calm Calm - N/A   Overcast
5:14 AM 34.5 °F - 34.5 °F 100% 30.11 in 4.0 mi Calm Calm - N/A   Overcast
5:34 AM 35.8 °F - 35.8 °F 100% 30.10 in 4.0 mi Calm Calm - N/A   Overcast
5:54 AM 35.8 °F - 35.8 °F 100% 30.10 in 4.0 mi Calm Calm - N/A   Overcast
6:14 AM 35.8 °F - 35.2 °F 98% 30.10 in 5.0 mi Calm Calm - N/A   Overcast
6:34 AM 36.1 °F - 35.4 °F 97% 30.10 in 5.0 mi Calm Calm - N/A   Overcast
6:54 AM 36.9 °F 34.3 °F 36.0 °F 97% 30.10 in 5.0 mi SSW 3.5 mph - N/A   Overcast
7:15 AM 37.2 °F - 36.3 °F 97% 30.10 in 5.0 mi Calm Calm - N/A   Overcast
7:35 AM 37.8 °F - 36.9 °F 97% 30.11 in 4.0 mi Calm Calm - N/A   Overcast
7:55 AM 36.9 °F - 36.1 °F 97% 30.11 in 3.0 mi Calm Calm - N/A   Overcast
8:15 AM 37.9 °F - 37.4 °F 98% 30.11 in 3.0 mi Calm Calm - N/A   Overcast
8:35 AM 38.3 °F - 37.4 °F 97% 30.11 in 4.0 mi Calm Calm - N/A   Overcast
8:55 AM 38.5 °F - 36.7 °F 93% 30.12 in 4.0 mi Calm Calm - N/A   Overcast
9:15 AM 39.4 °F - 37.0 °F 91% 30.12 in 4.0 mi Calm Calm - N/A   Overcast
9:36 AM 39.7 °F - 36.9 °F 89% 30.12 in 4.0 mi Calm Calm - N/A   Overcast
9:51 AM 40.5 °F - 37.6 °F 89% 30.12 in 4.0 mi Calm Calm - N/A   Overcast
10:11 AM 41.0 °F - 37.8 °F 88% 30.13 in 4.0 mi Calm Calm - N/A   Overcast
10:31 AM 41.4 °F - 37.6 °F 86% 30.13 in 4.0 mi Calm Calm - N/A   Overcast
10:51 AM 41.5 °F - 37.9 °F 87% 30.13 in 4.0 mi Calm Calm - N/A   Overcast
11:11 AM 41.9 °F - 37.9 °F 86% 30.14 in 4.0 mi Calm Calm - N/A   Overcast
11:31 AM 42.3 °F - 37.9 °F 85% 30.13 in 5.0 mi Calm Calm - N/A   Overcast
11:51 AM 42.8 °F - 38.3 °F 84% 30.12 in 5.0 mi Calm Calm - N/A   Haze
12:12 PM 43.5 °F - 38.8 °F 84% 30.12 in 4.0 mi Calm Calm - N/A   Haze
12:32 PM 43.2 °F - 38.7 °F 84% 30.11 in 4.0 mi Calm Calm - N/A   Overcast
12:52 PM 42.8 °F 41.1 °F 38.3 °F 84% 30.11 in 4.0 mi WSW 3.5 mph - N/A   Haze
1:12 PM 43.3 °F - 38.7 °F 84% 30.11 in 4.0 mi Calm Calm - N/A   Overcast
1:32 PM 43.3 °F - 38.7 °F 84% 30.11 in 4.0 mi Calm Calm - N/A   Overcast
1:52 PM 42.8 °F - 39.0 °F 86% 30.10 in 2.5 mi Calm Calm - N/A Rain Light Rain
2:12 PM 42.4 °F - 40.1 °F 91% 30.10 in 4.0 mi Calm Calm - N/A   Overcast
2:32 PM 43.7 °F - 40.1 °F 87% 30.10 in 4.0 mi Calm Calm - N/A   Overcast
2:53 PM 43.2 °F - 40.1 °F 89% 30.08 in 4.0 mi Calm Calm - N/A   Overcast
3:13 PM 43.3 °F - 39.7 °F 87% 30.08 in 4.0 mi Calm Calm - N/A   Overcast
3:33 PM 43.7 °F - 39.9 °F 87% 30.09 in 4.0 mi Calm Calm - N/A   Overcast
3:53 PM 43.9 °F - 40.1 °F 87% 30.08 in 4.0 mi Calm Calm - N/A   Overcast
4:13 PM 44.1 °F - 40.5 °F 87% 30.09 in 4.0 mi Calm Calm - N/A   Overcast
4:33 PM 43.7 °F - 40.3 °F 88% 30.09 in 4.0 mi Calm Calm - N/A   Overcast
4:53 PM 43.3 °F - 41.0 °F 91% 30.09 in 4.0 mi Calm Calm - N/A   Overcast
5:14 PM 43.5 °F - 41.5 °F 93% 30.10 in 4.0 mi Calm Calm - N/A   Overcast
5:34 PM 42.3 °F - 41.0 °F 95% 30.11 in 4.0 mi Calm Calm - N/A   Overcast
5:54 PM 42.1 °F - 41.2 °F 97% 30.11 in 4.0 mi Calm Calm - N/A   Overcast
6:14 PM 42.1 °F - 41.4 °F 97% 30.11 in 3.0 mi Calm Calm - N/A   Overcast
6:34 PM 41.9 °F - 41.4 °F 98% 30.11 in 3.0 mi Calm Calm - N/A   Overcast
6:54 PM 41.9 °F - 41.9 °F 100% 30.12 in 3.0 mi Calm Calm - N/A   Overcast
7:14 PM 42.1 °F - 41.9 °F 99% 30.12 in 3.0 mi Calm Calm - N/A   Overcast
7:34 PM 42.1 °F - 41.4 °F 97% 30.13 in 2.5 mi Calm Calm - N/A   Overcast
7:55 PM 41.4 °F - 41.2 °F 99% 30.12 in 2.5 mi Calm Calm - N/A   Overcast
8:15 PM 41.2 °F - 41.2 °F 100% 30.13 in 2.5 mi Calm Calm - N/A   Overcast
8:35 PM 41.0 °F - 41.0 °F 100% 30.13 in 2.5 mi Calm Calm - N/A   Overcast
8:55 PM 41.0 °F - 41.0 °F 100% 30.13 in 2.5 mi Calm Calm - N/A   Overcast
9:15 PM 41.0 °F - 41.0 °F 100% 30.13 in 2.5 mi Calm Calm - N/A   Overcast
9:35 PM 41.0 °F - 41.0 °F 100% 30.13 in 2.5 mi Calm Calm - N/A   Overcast
9:55 PM 41.0 °F - 41.0 °F 100% 30.14 in 2.5 mi Calm Calm - N/A   Overcast
10:15 PM 41.2 °F - 41.2 °F 100% 30.14 in 2.5 mi Calm Calm - N/A   Overcast
10:35 PM 41.0 °F - 41.0 °F 100% 30.13 in 2.5 mi Calm Calm - N/A   Overcast
10:56 PM 41.0 °F - 41.0 °F 100% 30.12 in 3.0 mi Calm Calm - N/A   Overcast
11:11 PM 41.0 °F - 41.0 °F 100% 30.12 in 3.0 mi Calm Calm - N/A   Overcast
11:31 PM 41.0 °F - 41.0 °F 100% 30.12 in 3.0 mi Calm Calm - N/A   Overcast
11:51 PM 41.0 °F - 40.6 °F 99% 30.13 in 3.0 mi Calm Calm - N/A   Overcast